Location: Oberstdorf
(47.4188°N, 10.2969°E)
Time: 11:09:59
(UTC+01:00)

ISS - Pass Details

Date: 07 January 2018
Orbit: 402 x 407 km, 51.6° (Epoch: 18 January)

Event Time Altitude Azimuth Distance (km) Brightness Sun altitude
Exits shadow 07:28:57 - 296° (WNW) 1,614 -1.5 -6.2°
Reaches altitude 10° 07:29:18 10° 297° (WNW) 1,470 -1.7 -6.1°
Maximum altitude 07:32:35 64° 19° (NNE) 455 -3.6 -5.6°
Drops below altitude 10° 07:35:51 10° 103° (ESE) 1,467 0.6 -5.2°
Sets 07:37:57 0° 106° (ESE) 2,327 2.1 -4.8°
